Hourly Weather Roundup
Issued by NWS Central Illinois

Home | Current Version | Previous Version | Text Only | Print | Product List | Glossary On
Versions: 1 2 3 4 5 6 7 8 9 10 11 12 13 14 15 16 17 18 19 20 21 22 23 24 25 26 27 28 29 30 31 32 33 34 35 36 37 38 39 40 41 42 43 44 45 46 47 48 49 50
000
NZUS43 KILX 100110
HWRILX

AREA WEATHER ROUNDUP
NATIONAL WEATHER SERVICE, LINCOLN IL
700 PM CST FRI DEC 09 2016


CITY           SKY/WX    TMP DP  RH WIND       PRES   REMARKS
BLOOMINGTON    FLURRIES  21  15  78 W8        30.54F WCI  11
CHAMPAIGN      CLOUDY    22  13  68 W8        30.55F WCI  12
DANVILLE       FLURRIES  24  17  76 W7        30.53S WCI  15
DECATUR        CLOUDY    23  13  65 VRB6      30.56F WCI  16
EFFINGHAM      CLOUDY    22  17  82 W3        30.59S
FLORA          CLOUDY    25  16  68 W5        30.59S WCI  19
GALESBURG      MOCLDY    20  15  79 CALM      30.55S
JACKSONVILLE   CLOUDY    22  16  76 W3        30.58R
LACON          CLOUDY    23  14  69 W7        30.55S WCI  15
LAWRENCEVILLE  CLOUDY    25  17  72 N3        30.58F
LITCHFIELD     MOCLDY    21  16  79 CALM      30.56S
$$


CITY           SKY/WX    TMP DP  RH WIND       PRES   REMARKS
LINCOLN        CLOUDY    23  14  67 CALM      30.57S
MACOMB         CLOUDY    19  16  85 W3        30.58S
MATTOON        CLOUDY    23  15  71 N6        30.55S WCI  16
MT CARMEL AP   CLOUDY    26  17  69 N5        30.57F WCI  20
OLNEY-NOBLE AP CLOUDY    25  19  80 NW3       30.58F
PARIS          CLOUDY    22  18  85 W7        30.57S WCI  13
PEORIA         CLOUDY    23  12  62 CALM      30.56F
PONTIAC        MIX PCPN  25  18  76 W8        30.55F WCI  16
RANTOUL        FLURRIES  25  19  76 W8        30.55S WCI  16
SPRINGFIELD    CLOUDY    24  15  68 CALM      30.57F
TAYLORVILLE    CLOUDY    21  15  76 CALM      30.57S
$$

...REGIONAL REPORTS...


CITY           SKY/WX    TMP DP  RH WIND       PRES   REMARKS
CHICAGO O`HARE MOCLDY    20  12  71 W9        30.51S WCI   9
KANKAKEE       CLOUDY    24  14  66 W7        30.55S WCI  16
MOLINE         CLOUDY    20  12  71 W3        30.56S
MOUNT STERLING CLOUDY    21  15  76 CALM      30.56R
MOUNT VERNON   NOT AVBL
PITTSFIELD     CLOUDY    24  16  70 CALM      30.57S
QUINCY         CLOUDY    22  14  71 CALM      30.56R
ROCKFORD       PTCLDY    19  11  70 CALM      30.54R
$$


CITY           SKY/WX    TMP DP  RH WIND       PRES   REMARKS
BURLINGTON     MOCLDY    20  14  77 CALM      30.56R
CEDAR RAPIDS   CLOUDY    16  14  92 CALM      30.53S
DES MOINES     CLOUDY    23  10  57 SW5       30.54S WCI  17
KIRKSVILLE     CLOUDY    24  13  62 CALM      30.56R
OTTUMWA        CLOUDY    21  11  65 CALM      30.55R
ST LOUIS       CLEAR     25  12  58 N3        30.57S
$$


CITY           SKY/WX    TMP DP  RH WIND       PRES   REMARKS
TERRE HAUTE    CLOUDY    24  17  74 W3        30.57S
EVANSVILLE     CLEAR     25  15  66 CALM      30.58S
INDIANAPOLIS   FLURRIES  25  15  66 W10       30.53S WCI  15
LAFAYETTE      CLOUDY    24  16  71 NW6       30.54F WCI  17
MADISON        PTCLDY    19  11  70 VRB5      30.48S WCI  12
MILWAUKEE      MOCLDY    23   9  55 W6        30.49R WCI  16
$$






USA.gov is the U.S. government's official web portal to all federal, state and local government web resources and services.